Location: Asarope
(8.2500°N, 4.4833°E)
Time: 14:44:30
(UTC+00:00)

GPS 2-15 Rocket1 - Pass Details

Date: 07 June 2020
Orbit: 624 x 675 km, 19.8° (Epoch: 07 July)

Event Time Altitude Azimuth Distance (km) Brightness Sun altitude
Exits shadow 04:47:58 11° 249° (WSW) 1,949 4.9 -8.8°
Maximum altitude 04:52:33 87° 163° (SSE) 647 3.2 -7.8°
Drops below altitude 10° 04:57:23 10° 72° (ENE) 2,050 7.5 -6.7°
Sets 04:59:47 0° 72° (ENE) 2,970 9.1 -6.2°
